Location: Chiroubles
(46.1812°N, 4.6660°E)
Time: 03:24:27
(UTC+00:00)

Cosmos 2233 Rocket - Pass Details

Date: 15 August 2020
Orbit: 952 x 991 km, 82.9° (Epoch: 25 September)

Event Time Altitude Azimuth Distance (km) Brightness Sun altitude
Exits shadow 22:34:04 65° 218° (SW) 1,084 4.0 -28.0°
Maximum altitude 22:34:58 78° 279° (W) 1,019 4.0 -28.1°
Drops below altitude 10° 22:41:20 10° 6° (N) 2,763 7.2 -28.4°
Sets 22:43:52 0° 8° (N) 3,713 8.0 -28.6°
